owner,sensor,date,latitude,longitude,vertical_datum,wind_speed,wind_to_direction,wind_speed_of_gust,qcFlag 
TABS,ioos:station:wmo:42045:1,2003-10-26T12:09:00Z,26.2168,-96.4998,4.0,4.560175435,193.1831448,7.63,'11111222,11111222,11111222' 
TABS,ioos:station:wmo:42045:1,2003-10-26T12:39:00Z,26.2168,-96.4998,4.0,1.331352696,198.8433918,4.27,'11111222,11111222,11111222' 
TABS,ioos:station:wmo:42045:1,2003-10-26T13:09:00Z,26.2168,-96.4998,4.0,1.26574089,244.2447895,3.07,'11111222,11111222,11111222' 
TABS,ioos:station:wmo:42045:1,2003-10-26T13:39:00Z,26.2168,-96.4998,4.0,1.974639208,263.0189589,4.89,'11111222,11111222,11111222' 
TABS,ioos:station:wmo:42045:1,2003-10-26T14:09:00Z,26.2168,-96.4998,4.0,2.881405907,321.3400717,5.07,'11111222,11111222,11111222' 
TABS,ioos:station:wmo:42045:1,2003-10-26T14:39:00Z,26.2168,-96.4998,4.0,3.984532595,309.6029557,5.67,'11111222,11111222,11111222' 
TABS,ioos:station:wmo:42045:1,2003-10-26T15:09:00Z,26.2168,-96.4998,4.0,5.480082116,337.6936366,8.78,'11111222,11111222,11111222' 
TABS,ioos:station:wmo:42045:1,2003-10-26T15:39:00Z,26.2168,-96.4998,4.0,7.607502875,11.6789586,12.47,'11111222,11111222,11111222' 
TABS,ioos:station:wmo:42045:1,2003-10-26T16:09:00Z,26.2168,-96.4998,4.0,9.190832389,16.10784646,13.81,'11111222,11111222,11111222' 
TABS,ioos:station:wmo:42045:1,2003-10-26T16:39:00Z,26.2168,-96.4998,4.0,7.265769058,35.02402898,11.64,'11111222,11111222,11111222' 
TABS,ioos:station:wmo:42045:1,2003-10-26T17:09:00Z,26.2168,-96.4998,4.0,9.167905977,15.36997895,13.93,'11111222,11111222,11111222' 
TABS,ioos:station:wmo:42045:1,2003-10-26T17:39:00Z,26.2168,-96.4998,4.0,10.17012291,0.281476778,14.85,'11111222,11111222,11111222' 
TABS,ioos:station:wmo:42045:1,2003-10-26T18:09:00Z,26.2168,-96.4998,4.0,10.0136407,1.544851906,14.68,'11111222,11111222,11111222' 
TABS,ioos:station:wmo:42045:1,2003-10-26T18:39:00Z,26.2168,-96.4998,4.0,9.999699995,7.238499118,14.47,'11111222,11111222,11111222' 
TABS,ioos:station:wmo:42045:1,2003-10-26T19:09:00Z,26.2168,-96.4998,4.0,10.18000491,359.943507,15.57,'11111222,11144222,11111222' 
TABS,ioos:station:wmo:42045:1,2003-10-26T19:39:00Z,26.2168,-96.4998,4.0,9.795044666,355.9016796,14.53,'11111222,11111222,11111222' 
TABS,ioos:station:wmo:42045:1,2003-10-26T20:09:00Z,26.2168,-96.4998,4.0,10.71000467,0.053286861,16.02,'11111222,11111222,11111222' 
TABS,ioos:station:wmo:42045:1,2003-10-26T20:39:00Z,26.2168,-96.4998,4.0,10.55057344,0.597163251,15.41,'11111222,11111222,11111222' 
TABS,ioos:station:wmo:42045:1,2003-10-26T21:09:00Z,26.2168,-96.4998,4.0,11.04268536,354.9603905,17.76,'11111222,11111222,11111222' 
TABS,ioos:station:wmo:42045:1,2003-10-26T21:39:00Z,26.2168,-96.4998,4.0,10.51962927,357.5480957,16.99,'11111222,11111222,11111222' 
TABS,ioos:station:wmo:42045:1,2003-10-26T22:09:00Z,26.2168,-96.4998,4.0,9.94453116,353.9968291,14.98,'11111222,11111222,11111222' 
TABS,ioos:station:wmo:42045:1,2003-10-26T22:39:00Z,26.2168,-96.4998,4.0,10.20931437,351.6077941,15.14,'11111222,11111222,11111222' 
TABS,ioos:station:wmo:42045:1,2003-10-26T23:09:00Z,26.2168,-96.4998,4.0,10.53801215,350.3855357,16.49,'11111222,11111222,11111222' 
TABS,ioos:station:wmo:42045:1,2003-10-26T23:39:00Z,26.2168,-96.4998,4.0,10.50179508,346.0032756,16.34,'11111222,11111222,11111222' 
TABS,ioos:station:wmo:42045:1,2003-10-27T01:09:00Z,26.2168,-96.4998,4.0,10.05555071,345.8392036,15.12,'11111222,11111222,11111222' 
TABS,ioos:station:wmo:42045:1,2003-10-27T01:39:00Z,26.2168,-96.4998,4.0,10.03133092,346.1575189,15.59,'11111222,11111222,11111222' 
TABS,ioos:station:wmo:42045:1,2003-10-27T02:09:00Z,26.2168,-96.4998,4.0,10.22996579,348.0967366,15.35,'11111222,11111222,11111222' 
TABS,ioos:station:wmo:42045:1,2003-10-27T02:39:00Z,26.2168,-96.4998,4.0,10.08238563,348.5004218,15.4,'11111222,11111222,11111222' 
TABS,ioos:station:wmo:42045:1,2003-10-27T03:09:00Z,26.2168,-96.4998,4.0,10.03412677,354.6244343,14.54,'11111222,11111222,11111222' 
TABS,ioos:station:wmo:42045:1,2003-10-27T03:39:00Z,26.2168,-96.4998,4.0,9.963232407,356.0862654,15.71,'11111222,11111222,11111222' 
TABS,ioos:station:wmo:42045:1,2003-10-27T07:09:00Z,26.2168,-96.4998,4.0,10.04503858,9.049493088,15.47,'11111222,11111222,11111222' 
TABS,ioos:station:wmo:42045:1,2003-10-27T07:39:00Z,26.2168,-96.4998,4.0,9.377233067,5.752927628,14.18,'11111222,11111222,11111222' 
TABS,ioos:station:wmo:42045:1,2003-10-27T08:09:00Z,26.2168,-96.4998,4.0,9.974091437,356.9537977,15.52,'11111222,11111222,11111222' 
TABS,ioos:station:wmo:42045:1,2003-10-27T08:39:00Z,26.2168,-96.4998,4.0,11.92200067,348.9255116,18.18,'11111222,11111222,11111222' 
TABS,ioos:station:wmo:42045:1,2003-10-27T09:09:00Z,26.2168,-96.4998,4.0,11.40842233,354.7189815,17.62,'11111222,11111222,11111222' 
TABS,ioos:station:wmo:42045:1,2003-10-27T09:39:00Z,26.2168,-96.4998,4.0,10.75565898,354.7185613,16.54,'11111222,11111222,11111222' 
TABS,ioos:station:wmo:42045:1,2003-10-27T13:09:00Z,26.2168,-96.4998,4.0,10.24055663,350.8410275,16.15,'11111222,11111222,11111222' 
TABS,ioos:station:wmo:42045:1,2003-10-27T13:39:00Z,26.2168,-96.4998,4.0,10.15268437,354.7440613,15.56,'11111222,11111222,11111222' 
TABS,ioos:station:wmo:42045:1,2003-10-27T14:09:00Z,26.2168,-96.4998,4.0,9.94537581,355.9059732,15.11,'11111222,11111222,11111222' 
TABS,ioos:station:wmo:42045:1,2003-10-27T14:39:00Z,26.2168,-96.4998,4.0,9.508154395,353.6596126,15.62,'11111222,11111222,11111222' 
TABS,ioos:station:wmo:42045:1,2003-10-27T15:09:00Z,26.2168,-96.4998,4.0,8.947994189,346.7556341,14.14,'11111222,11111222,11111222' 
TABS,ioos:station:wmo:42045:1,2003-10-27T15:39:00Z,26.2168,-96.4998,4.0,9.552643613,340.2370768,14.41,'11111222,11111222,11111222' 
TABS,ioos:station:wmo:42045:1,2003-10-27T16:09:00Z,26.2168,-96.4998,4.0,10.57624224,338.9428804,15.35,'11111222,11111222,11111222' 
TABS,ioos:station:wmo:42045:1,2003-10-27T16:39:00Z,26.2168,-96.4998,4.0,10.84038745,339.5922584,16.26,'11111222,11111222,11111222' 
TABS,ioos:station:wmo:42045:1,2003-10-27T17:09:00Z,26.2168,-96.4998,4.0,10.18308892,340.0167297,16.01,'11111222,11111222,11111222' 
TABS,ioos:station:wmo:42045:1,2003-10-27T17:39:00Z,26.2168,-96.4998,4.0,9.461189143,340.1667722,14.16,'11111222,11111222,11111222' 
TABS,ioos:station:wmo:42045:1,2003-10-27T18:09:00Z,26.2168,-96.4998,4.0,9.882125277,336.7555751,14.6,'11111222,11111222,11111222' 
TABS,ioos:station:wmo:42045:1,2003-10-27T18:39:00Z,26.2168,-96.4998,4.0,8.549485365,347.914422,13.89,'11111222,11111222,11111222' 
TABS,ioos:station:wmo:42045:1,2003-10-27T22:09:00Z,26.2168,-96.4998,4.0,8.016763686,349.7972465,12.78,'11111222,11111222,11111222' 
TABS,ioos:station:wmo:42045:1,2003-10-27T22:39:00Z,26.2168,-96.4998,4.0,7.236608322,3.882321588,12.6,'11111222,11111222,11111222' 
TABS,ioos:station:wmo:42045:1,2003-10-28T04:09:00Z,26.2168,-96.4998,4.0,4.323806194,350.9514052,8.43,'11111222,11111222,11111222' 
TABS,ioos:station:wmo:42045:1,2003-10-28T04:39:00Z,26.2168,-96.4998,4.0,4.520409274,340.081703,8.31,'11111222,11111222,11111222' 
TABS,ioos:station:wmo:42045:1,2003-10-28T05:09:00Z,26.2168,-96.4998,4.0,4.470279633,359.3589254,8.22,'11111222,11144222,11111222' 
TABS,ioos:station:wmo:42045:1,2003-10-28T05:39:00Z,26.2168,-96.4998,4.0,3.024830574,343.4820139,6.69,'11111222,11111222,11111222' 
TABS,ioos:station:wmo:42045:1,2003-10-28T06:09:00Z,26.2168,-96.4998,4.0,2.988277096,353.6596126,6.09,'11111222,11111222,11111222' 
TABS,ioos:station:wmo:42045:1,2003-10-28T06:39:00Z,26.2168,-96.4998,4.0,3.332866634,345.0462598,6.48,'11111222,11111222,11111222' 
TABS,ioos:station:wmo:42045:1,2003-10-28T07:09:00Z,26.2168,-96.4998,4.0,2.987791827,332.4913946,6.81,'11111222,11111222,11111222' 
TABS,ioos:station:wmo:42045:1,2003-10-28T07:39:00Z,26.2168,-96.4998,4.0,2.004794254,331.3893968,5.64,'11111222,11111222,11111222' 
TABS,ioos:station:wmo:42045:1,2003-10-28T08:09:00Z,26.2168,-96.4998,4.0,2.57116705,342.3400544,6.16,'11111222,11111222,11111222' 
TABS,ioos:station:wmo:42045:1,2003-10-28T08:39:00Z,26.2168,-96.4998,4.0,3.768726575,307.9948998,7.31,'11111222,11111222,11111222' 
TABS,ioos:station:wmo:42045:1,2003-10-28T09:09:00Z,26.2168,-96.4998,4.0,2.698629282,303.5133326,6.42,'11111222,11111222,11111222' 
TABS,ioos:station:wmo:42045:1,2003-10-28T09:39:00Z,26.2168,-96.4998,4.0,3.291883959,299.6800465,6.31,'11111222,11111222,11111222' 
TABS,ioos:station:wmo:42045:1,2003-10-28T10:09:00Z,26.2168,-96.4998,4.0,2.372445995,307.9808019,6.54,'11111222,11111222,11111222' 
TABS,ioos:station:wmo:42045:1,2003-10-28T10:39:00Z,26.2168,-96.4998,4.0,2.711180555,308.5607047,6.44,'11111222,11111222,11111222' 
TABS,ioos:station:wmo:42045:1,2003-10-28T11:09:00Z,26.2168,-96.4998,4.0,2.581259383,329.7594007,5.97,'11111222,11111222,11111222' 
TABS,ioos:station:wmo:42045:1,2003-10-28T11:39:00Z,26.2168,-96.4998,4.0,1.382316896,328.6095948,4.83,'11111222,11111222,11111222' 
TABS,ioos:station:wmo:42045:1,2003-10-28T12:09:00Z,26.2168,-96.4998,4.0,2.18357505,331.5569274,5.3,'11111222,11111222,11111222' 
TABS,ioos:station:wmo:42045:1,2003-10-28T12:39:00Z,26.2168,-96.4998,4.0,1.800944197,328.1630965,5.49,'11111222,11111222,11111222' 
TABS,ioos:station:wmo:42045:1,2003-10-28T13:09:00Z,26.2168,-96.4998,4.0,2.463331078,330.3126773,5.18,'11111222,11111222,11111222' 
TABS,ioos:station:wmo:42045:1,2003-10-28T13:39:00Z,26.2168,-96.4998,4.0,2.501699422,303.7535094,6.95,'11111222,11111222,11111222' 
TABS,ioos:station:wmo:42045:1,2003-10-28T14:09:00Z,26.2168,-96.4998,4.0,2.294013949,327.2796465,5.09,'11111222,11111222,11111222' 
TABS,ioos:station:wmo:42045:1,2003-10-28T14:39:00Z,26.2168,-96.4998,4.0,2.303410515,328.3108828,5.08,'11111222,11111222,11111222' 
TABS,ioos:station:wmo:42045:1,2003-10-28T15:09:00Z,26.2168,-96.4998,4.0,2.390062761,314.6608712,5.88,'11111222,11111222,11111222' 
TABS,ioos:station:wmo:42045:1,2003-10-28T16:09:00Z,26.2168,-96.4998,4.0,1.337011593,325.358923,4.24,'11111222,11111222,11111222' 
TABS,ioos:station:wmo:42045:1,2003-10-28T16:39:00Z,26.2168,-96.4998,4.0,3.155724956,312.9453267,5.69,'11111222,11111222,11111222' 
TABS,ioos:station:wmo:42045:1,2003-10-28T17:09:00Z,26.2168,-96.4998,4.0,3.147205109,301.619355,5.64,'11111222,11111222,11111222' 
TABS,ioos:station:wmo:42045:1,2003-10-28T17:39:00Z,26.2168,-96.4998,4.0,2.692842364,277.4680833,5.08,'11111222,11111222,11111222' 
TABS,ioos:station:wmo:42045:1,2003-10-28T18:09:00Z,26.2168,-96.4998,4.0,3.027688888,299.6978673,5.05,'11111222,11111222,11111222' 
TABS,ioos:station:wmo:42045:1,2003-10-28T19:09:00Z,26.2168,-96.4998,4.0,2.856168763,292.4346396,5.14,'11111222,11111222,11111222' 
TABS,ioos:station:wmo:42045:1,2003-10-28T19:39:00Z,26.2168,-96.4998,4.0,2.432056743,272.3565158,4.78,'11111222,11111222,11111222' 
TABS,ioos:station:wmo:42045:1,2003-10-28T20:09:00Z,26.2168,-96.4998,4.0,2.529822128,288.4349057,4.7,'11111222,11111222,11111222' 
TABS,ioos:station:wmo:42045:1,2003-10-28T20:39:00Z,26.2168,-96.4998,4.0,2.345570293,290.9848488,4.87,'11111222,11111222,11111222' 
TABS,ioos:station:wmo:42045:1,2003-10-28T21:09:00Z,26.2168,-96.4998,4.0,1.732772345,276.9609467,4.47,'11111222,11111222,11111222' 
TABS,ioos:station:wmo:42045:1,2003-10-28T22:09:00Z,26.2168,-96.4998,4.0,1.701058494,272.0213602,3.61,'11111222,11111222,11111222' 
TABS,ioos:station:wmo:42045:1,2003-10-28T22:39:00Z,26.2168,-96.4998,4.0,1.639908534,263.698406,4.92,'11111222,11111222,11111222' 
TABS,ioos:station:wmo:42045:1,2003-10-28T23:09:00Z,26.2168,-96.4998,4.0,1.97524682,254.1343293,4.44,'11111222,11111222,11111222' 
TABS,ioos:station:wmo:42045:1,2003-10-28T23:39:00Z,26.2168,-96.4998,4.0,1.537075145,289.3779587,3.24,'11111222,11111222,11111222' 
TABS,ioos:station:wmo:42045:1,2003-10-29T00:09:00Z,26.2168,-96.4998,4.0,1.928004149,233.0113181,3.72,'11111222,11111222,11111222' 
TABS,ioos:station:wmo:42045:1,2003-10-29T00:39:00Z,26.2168,-96.4998,4.0,1.635267562,227.7264098,3.44,'11111222,11111222,11111222' 
TABS,ioos:station:wmo:42045:1,2003-10-29T01:09:00Z,26.2168,-96.4998,4.0,1.973144698,226.026799,4.11,'11111222,11111222,11111222' 
TABS,ioos:station:wmo:42045:1,2003-10-29T01:39:00Z,26.2168,-96.4998,4.0,2.033838735,221.2125405,3.97,'11111222,11111222,11111222' 
TABS,ioos:station:wmo:42045:1,2003-10-29T02:09:00Z,26.2168,-96.4998,4.0,1.808341782,213.9538276,4.93,'11111222,11111222,11111222' 
TABS,ioos:station:wmo:42045:1,2003-10-29T02:39:00Z,26.2168,-96.4998,4.0,2.252487514,209.52417,3.94,'11111222,11111222,11111222' 
TABS,ioos:station:wmo:42045:1,2003-10-29T03:09:00Z,26.2168,-96.4998,4.0,2.276356738,206.902891,3.83,'11111222,11111222,11111222' 
TABS,ioos:station:wmo:42045:1,2003-10-29T03:39:00Z,26.2168,-96.4998,4.0,2.176717713,188.9865003,4.05,'11111222,11111222,11111222' 
TABS,ioos:station:wmo:42045:1,2003-10-29T04:09:00Z,26.2168,-96.4998,4.0,2.60209531,220.7924745,4.25,'11111222,11111222,11111222' 
TABS,ioos:station:wmo:42045:1,2003-10-29T04:39:00Z,26.2168,-96.4998,4.0,2.354782368,213.2178076,4.1,'11111222,11111222,11111222' 
TABS,ioos:station:wmo:42045:1,2003-10-29T05:09:00Z,26.2168,-96.4998,4.0,1.936620768,212.1309607,3.41,'11111222,11111222,11111222' 
TABS,ioos:station:wmo:42045:1,2003-10-29T05:39:00Z,26.2168,-96.4998,4.0,3.748826483,208.0007088,5.88,'11111222,11111222,11111222' 
TABS,ioos:station:wmo:42045:1,2003-10-29T06:09:00Z,26.2168,-96.4998,4.0,3.555840266,213.0645306,5.4,'11111222,11111222,11111222' 
TABS,ioos:station:wmo:42045:1,2003-10-29T06:39:00Z,26.2168,-96.4998,4.0,3.005661325,200.2438513,4.89,'11111222,11111222,11111222' 
TABS,ioos:station:wmo:42045:1,2003-10-29T07:09:00Z,26.2168,-96.4998,4.0,2.937771264,214.8803058,4.53,'11111222,11111222,11111222' 
TABS,ioos:station:wmo:42045:1,2003-10-29T07:39:00Z,26.2168,-96.4998,4.0,3.120785158,209.3578954,5.33,'11111222,11111222,11111222' 
TABS,ioos:station:wmo:42045:1,2003-10-29T08:09:00Z,26.2168,-96.4998,4.0,3.729785517,219.4516519,6.03,'11111222,11111222,11111222' 
TABS,ioos:station:wmo:42045:1,2003-10-29T08:39:00Z,26.2168,-96.4998,4.0,2.918030157,194.8936486,5.16,'11111222,11111222,11111222' 
TABS,ioos:station:wmo:42045:1,2003-10-29T09:09:00Z,26.2168,-96.4998,4.0,3.480517203,215.8822638,5.37,'11111222,11111222,11111222' 
TABS,ioos:station:wmo:42045:1,2003-10-29T09:39:00Z,26.2168,-96.4998,4.0,3.600402755,219.7038115,5.8,'11111222,11111222,11111222' 
TABS,ioos:station:wmo:42045:1,2003-10-29T10:09:00Z,26.2168,-96.4998,4.0,4.025344706,221.1726494,6.36,'11111222,11111222,11111222' 
TABS,ioos:station:wmo:42045:1,2003-10-29T10:39:00Z,26.2168,-96.4998,4.0,3.878272811,219.5597859,6.52,'11111222,11111222,11111222' 
TABS,ioos:station:wmo:42045:1,2003-10-29T11:09:00Z,26.2168,-96.4998,4.0,4.018071677,217.2122516,6.0,'11111222,11111222,11111222' 
TABS,ioos:station:wmo:42045:1,2003-10-29T11:39:00Z,26.2168,-96.4998,4.0,4.798926963,212.6636241,7.19,'11111222,11111222,11111222' 
TABS,ioos:station:wmo:42045:1,2003-10-29T12:09:00Z,26.2168,-96.4998,4.0,4.646654711,206.1791904,6.61,'11111222,11111222,11111222' 
TABS,ioos:station:wmo:42045:1,2003-10-29T12:39:00Z,26.2168,-96.4998,4.0,5.267200395,214.3237745,7.73,'11111222,11111222,11111222' 
TABS,ioos:station:wmo:42045:1,2003-10-29T13:09:00Z,26.2168,-96.4998,4.0,5.378187427,209.5203864,8.46,'11111222,11111222,11111222' 
TABS,ioos:station:wmo:42045:1,2003-10-29T13:39:00Z,26.2168,-96.4998,4.0,5.43647864,209.5358672,8.14,'11111222,11111222,11111222' 
TABS,ioos:station:wmo:42045:1,2003-10-29T14:09:00Z,26.2168,-96.4998,4.0,5.058270455,207.1730881,7.97,'11111222,11111222,11111222' 
TABS,ioos:station:wmo:42045:1,2003-10-29T14:39:00Z,26.2168,-96.4998,4.0,5.322649716,209.117479,8.06,'11111222,11111222,11111222' 
TABS,ioos:station:wmo:42045:1,2003-10-29T15:09:00Z,26.2168,-96.4998,4.0,5.199115309,204.7906869,7.58,'11111222,11111222,11111222' 
TABS,ioos:station:wmo:42045:1,2003-10-29T16:09:00Z,26.2168,-96.4998,4.0,4.400954442,210.2940617,6.89,'11111222,11111222,11111222' 
TABS,ioos:station:wmo:42045:1,2003-10-29T16:39:00Z,26.2168,-96.4998,4.0,4.06070191,206.6283004,7.2,'11111222,11111222,11111222' 
TABS,ioos:station:wmo:42045:1,2003-10-29T17:09:00Z,26.2168,-96.4998,4.0,4.364974227,209.2077386,6.43,'11111222,11111222,11111222' 
TABS,ioos:station:wmo:42045:1,2003-10-29T17:39:00Z,26.2168,-96.4998,4.0,4.611138688,205.8427903,7.37,'11111222,11111222,11111222' 
TABS,ioos:station:wmo:42045:1,2003-10-29T18:09:00Z,26.2168,-96.4998,4.0,4.635353277,194.8758577,8.27,'11111222,11111222,11111222' 
TABS,ioos:station:wmo:42045:1,2003-10-29T19:09:00Z,26.2168,-96.4998,4.0,5.637242234,189.4959288,8.59,'11111222,11111222,11111222' 
TABS,ioos:station:wmo:42045:1,2003-10-29T19:39:00Z,26.2168,-96.4998,4.0,5.918378156,193.2850459,8.78,'11111222,11111222,11111222' 
TABS,ioos:station:wmo:42045:1,2003-10-29T20:09:00Z,26.2168,-96.4998,4.0,6.138607334,193.8553213,9.48,'11111222,11111222,11111222' 
TABS,ioos:station:wmo:42045:1,2003-10-29T20:39:00Z,26.2168,-96.4998,4.0,6.519585876,188.3788634,9.43,'11111222,11111222,11111222' 
TABS,ioos:station:wmo:42045:1,2003-10-29T21:09:00Z,26.2168,-96.4998,4.0,6.299603162,190.7036472,10.2,'11111222,11111222,11111222' 
TABS,ioos:station:wmo:42045:1,2003-10-29T22:09:00Z,26.2168,-96.4998,4.0,6.445967732,186.0557274,9.3,'11111222,11111222,11111222' 
TABS,ioos:station:wmo:42045:1,2003-10-29T22:39:00Z,26.2168,-96.4998,4.0,6.380007837,180.0900155,9.65,'11111222,11111222,11111222' 
TABS,ioos:station:wmo:42045:1,2003-10-29T23:09:00Z,26.2168,-96.4998,4.0,5.990676089,180.8610152,9.37,'11111222,11111222,11111222' 
TABS,ioos:station:wmo:42045:1,2003-10-29T23:39:00Z,26.2168,-96.4998,4.0,6.564282139,185.8584367,9.78,'11111222,11111222,11111222' 
TABS,ioos:station:wmo:42045:1,2003-10-30T00:09:00Z,26.2168,-96.4998,4.0,6.775787777,182.3685476,9.96,'11111222,11111222,11111222' 
TABS,ioos:station:wmo:42045:1,2003-10-30T00:39:00Z,26.2168,-96.4998,4.0,6.983423229,171.6844797,10.7,'11111222,11111222,11111222' 
TABS,ioos:station:wmo:42045:1,2003-10-30T01:09:00Z,26.2168,-96.4998,4.0,6.539915902,175.5276029,9.77,'11111222,11111222,11111222' 
TABS,ioos:station:wmo:42045:1,2003-10-30T01:39:00Z,26.2168,-96.4998,4.0,7.132531108,181.5266616,10.35,'11111222,11111222,11111222' 
TABS,ioos:station:wmo:42045:1,2003-10-30T02:09:00Z,26.2168,-96.4998,4.0,7.3801084,172.6826211,11.4,'11111222,11111222,11111222' 
TABS,ioos:station:wmo:42045:1,2003-10-30T02:39:00Z,26.2168,-96.4998,4.0,7.193608274,168.9402293,11.81,'11111222,11111222,11111222' 
TABS,ioos:station:wmo:42045:1,2003-10-30T03:09:00Z,26.2168,-96.4998,4.0,7.608442679,170.3150676,11.34,'11111222,11111222,11111222' 
TABS,ioos:station:wmo:42045:1,2003-10-30T03:39:00Z,26.2168,-96.4998,4.0,7.920909039,179.132161,11.75,'11111222,11111222,11111222' 
TABS,ioos:station:wmo:42045:1,2003-10-30T04:09:00Z,26.2168,-96.4998,4.0,7.94,180.0002105,11.67,'11111222,11111222,11111222' 
TABS,ioos:station:wmo:42045:1,2003-10-30T04:39:00Z,26.2168,-96.4998,4.0,8.06152591,186.481664,12.01,'11111222,11111222,11111222' 
TABS,ioos:station:wmo:42045:1,2003-10-30T05:09:00Z,26.2168,-96.4998,4.0,7.692106344,181.3410861,11.98,'11111222,11111222,11111222' 
TABS,ioos:station:wmo:42045:1,2003-10-30T05:39:00Z,26.2168,-96.4998,4.0,8.058740596,184.8405973,12.52,'11111222,11111222,11111222' 
TABS,ioos:station:wmo:42045:1,2003-10-30T06:09:00Z,26.2168,-96.4998,4.0,7.884871591,186.1156997,11.81,'11111222,11111222,11111222' 
TABS,ioos:station:wmo:42045:1,2003-10-30T06:39:00Z,26.2168,-96.4998,4.0,8.728923187,184.6657228,12.51,'11111222,11111222,11111222' 
TABS,ioos:station:wmo:42045:1,2003-10-30T07:09:00Z,26.2168,-96.4998,4.0,8.504610514,178.1135067,12.92,'11111222,11111222,11111222' 
TABS,ioos:station:wmo:42045:1,2003-10-30T07:39:00Z,26.2168,-96.4998,4.0,9.203961104,178.3191903,13.72,'11111222,11111222,11111222' 
TABS,ioos:station:wmo:42045:1,2003-10-30T08:09:00Z,26.2168,-96.4998,4.0,8.853569901,183.1728537,13.19,'11111222,11111222,11111222' 
TABS,ioos:station:wmo:42045:1,2003-10-30T08:39:00Z,26.2168,-96.4998,4.0,8.318870116,183.8600909,12.47,'11111222,11111222,11111222' 
TABS,ioos:station:wmo:42045:1,2003-10-30T09:09:00Z,26.2168,-96.4998,4.0,8.440675328,187.4198949,12.33,'11111222,11111222,11111222' 
TABS,ioos:station:wmo:42045:1,2003-10-30T09:39:00Z,26.2168,-96.4998,4.0,7.933933451,189.2844268,11.56,'11111222,11111222,11111222' 
TABS,ioos:station:wmo:42045:1,2003-10-30T10:09:00Z,26.2168,-96.4998,4.0,7.212828849,183.4179742,11.31,'11111222,11111222,11111222' 
TABS,ioos:station:wmo:42045:1,2003-10-30T10:39:00Z,26.2168,-96.4998,4.0,8.012022217,181.2875364,12.8,'11111222,11111222,11111222' 
TABS,ioos:station:wmo:42045:1,2003-10-30T11:09:00Z,26.2168,-96.4998,4.0,8.060099255,180.2845538,11.87,'11111222,11111222,11111222' 
TABS,ioos:station:wmo:42045:1,2003-10-30T11:39:00Z,26.2168,-96.4998,4.0,7.320553258,180.7046296,11.36,'11111222,11111222,11111222' 
TABS,ioos:station:wmo:42045:1,2003-10-30T12:09:00Z,26.2168,-96.4998,4.0,7.855303941,184.6002954,11.46,'11111222,11111222,11111222' 
TABS,ioos:station:wmo:42045:1,2003-10-30T12:39:00Z,26.2168,-96.4998,4.0,7.783064949,171.1309367,12.24,'11111222,11111222,11111222' 
TABS,ioos:station:wmo:42045:1,2003-10-30T13:09:00Z,26.2168,-96.4998,4.0,8.301668507,173.012179,12.29,'11111222,11111222,11111222' 
TABS,ioos:station:wmo:42045:1,2003-10-30T13:39:00Z,26.2168,-96.4998,4.0,8.191507798,172.4240733,12.76,'11111222,11111222,11111222' 
TABS,ioos:station:wmo:42045:1,2003-10-30T14:09:00Z,26.2168,-96.4998,4.0,7.890354872,173.5237111,13.05,'11111222,11111222,11111222' 
TABS,ioos:station:wmo:42045:1,2003-10-30T14:39:00Z,26.2168,-96.4998,4.0,8.051639585,169.6253757,11.74,'11111222,11111222,11111222' 
TABS,ioos:station:wmo:42045:1,2003-10-30T15:09:00Z,26.2168,-96.4998,4.0,8.029856786,167.8506629,12.97,'11111222,11111222,11111222' 
TABS,ioos:station:wmo:42045:1,2003-10-30T15:39:00Z,26.2168,-96.4998,4.0,8.056003972,171.145923,12.89,'11111222,11111222,11111222' 
TABS,ioos:station:wmo:42045:1,2003-10-30T16:09:00Z,26.2168,-96.4998,4.0,8.152705073,170.8960757,11.81,'11111222,11111222,11111222' 
TABS,ioos:station:wmo:42045:1,2003-10-30T16:39:00Z,26.2168,-96.4998,4.0,7.827036476,168.5036743,11.82,'11111222,11111222,11111222' 
TABS,ioos:station:wmo:42045:1,2003-10-30T17:09:00Z,26.2168,-96.4998,4.0,7.866365107,166.8473039,11.58,'11111222,11111222,11111222' 
TABS,ioos:station:wmo:42045:1,2003-10-30T17:39:00Z,26.2168,-96.4998,4.0,7.746612163,166.1075077,12.3,'11111222,11111222,11111222' 
TABS,ioos:station:wmo:42045:1,2003-10-30T18:09:00Z,26.2168,-96.4998,4.0,7.632620782,165.8183487,11.61,'11111222,11111222,11111222' 
TABS,ioos:station:wmo:42045:1,2003-10-30T18:39:00Z,26.2168,-96.4998,4.0,8.192246334,169.3075427,12.93,'11111222,11111222,11111222' 
TABS,ioos:station:wmo:42045:1,2003-10-30T19:09:00Z,26.2168,-96.4998,4.0,8.079362599,169.7334456,12.23,'11111222,11111222,11111222' 
TABS,ioos:station:wmo:42045:1,2003-10-30T19:39:00Z,26.2168,-96.4998,4.0,8.473818502,169.8042461,12.74,'11111222,11111222,11111222' 
TABS,ioos:station:wmo:42045:1,2003-10-30T20:09:00Z,26.2168,-96.4998,4.0,8.046291071,169.8355061,12.19,'11111222,11111222,11111222' 
TABS,ioos:station:wmo:42045:1,2003-10-30T20:39:00Z,26.2168,-96.4998,4.0,7.950861589,169.1990832,12.25,'11111222,11111222,11111222' 
TABS,ioos:station:wmo:42045:1,2003-10-30T21:09:00Z,26.2168,-96.4998,4.0,7.55378051,166.9942536,11.77,'11111222,11111222,11111222' 
TABS,ioos:station:wmo:42045:1,2003-10-30T21:39:00Z,26.2168,-96.4998,4.0,8.154048074,165.9469577,12.0,'11111222,11111222,11111222' 
TABS,ioos:station:wmo:42045:1,2003-10-30T22:09:00Z,26.2168,-96.4998,4.0,7.632620782,165.8183487,11.2,'11111222,11111222,11111222' 
TABS,ioos:station:wmo:42045:1,2003-10-30T22:39:00Z,26.2168,-96.4998,4.0,7.398405234,163.6718937,11.18,'11111222,11111222,11111222' 
TABS,ioos:station:wmo:42045:1,2003-10-30T23:09:00Z,26.2168,-96.4998,4.0,7.331043582,162.4550707,11.98,'11111222,11111222,11111222' 
TABS,ioos:station:wmo:42045:1,2003-10-30T23:39:00Z,26.2168,-96.4998,4.0,7.422108865,162.0291281,11.46,'11111222,11111222,11111222' 
TABS,ioos:station:wmo:42045:1,2003-10-31T00:09:00Z,26.2168,-96.4998,4.0,7.722337729,157.2205943,11.28,'11111222,11111222,11111222' 
TABS,ioos:station:wmo:42045:1,2003-10-31T00:39:00Z,26.2168,-96.4998,4.0,7.368561596,158.5887105,11.48,'11111222,11111222,11111222' 